Page, AZ

8:45 AM MDT on March 26, 2017 (GMT -0600)
Page Municipal

Weather History for KPGA - December, 2012

Change the Weather History Date:

Wednesday, December 5, 2012

  Actual Average Record
Temperature  
Mean Temperature 47 °F -  
Max Temperature 55 °F 48 °F 66 °F (1958)
Min Temperature 39 °F 30 °F 12 °F (1968)
Degree Days  
Heating Degree Days 18    
Moisture  
Dew Point 30 °F    
Average Humidity 52    
Maximum Humidity 68    
Minimum Humidity 29    
Precipitation  
Precipitation 0.00 in - - ()
Sea Level Pressure  
Sea Level Pressure 30.11 in    
Wind  
Wind Speed 1 mph (WNW)    
Max Wind Speed 5 mph    
Max Gust Speed -    
Visibility 9 miles    
Events      
Averages and records for this station are not official NWS values.
T = Trace of Precipitation, MM = Missing Value Source: NWS Daily Summary

Daily Weather History Graph

Daily Weather History Graph

Search for Another Location

Airport or City:

Trip Planner

Search our weather history database for the weather conditions in past years. The results will help you decide how hot, cold, wet, or windy it might be!

Date:

Astronomy

Dec. 05, 2012 Rise Set
Actual Time 7:24 AM MST 5:08 PM MST
Civil Twilight 6:55 AM MST 5:37 PM MST
Nautical Twilight 6:23 AM MST 6:09 PM MST
Astronomical Twilight 5:51 AM MST 6:41 PM MST
Moon 11:54 PM MST (12/5) 11:56 AM MST (12/5)
Length of Visible Light 10h 42m
Length of Day
9h 44m
Waning Gibbous, 59% of the Moon is Illuminated
Dec 5
Waning Gibbous
Dec 6
Last Quarter
Dec 13
New
Dec 19
First Quarter
Dec 28
Full

Hourly Weather History & Observations

Time (MST) Temp. Windchill Dew Point Humidity Pressure Visibility Wind Dir Wind Speed Gust Speed Precip Events Conditions
12:53 AM 45.0 °F - 30.9 °F 58% 30.23 in 10.0 mi Calm Calm - N/A   Clear
1:53 AM 45.0 °F - 30.9 °F 58% 30.22 in 10.0 mi Calm Calm - N/A   Clear
2:53 AM 43.0 °F 41.3 °F 30.9 °F 62% 30.22 in 10.0 mi West 3.5 mph - N/A   Clear
3:53 AM 41.0 °F - 30.9 °F 67% 30.21 in 9.0 mi Calm Calm - N/A   Clear
4:53 AM 39.9 °F - 30.0 °F 68% 30.20 in 10.0 mi Calm Calm - N/A   Clear
5:53 AM 39.9 °F - 30.0 °F 68% 30.20 in 10.0 mi Calm Calm - N/A   Clear
7:53 AM 41.0 °F 39.0 °F 28.9 °F 62% 30.21 in 10.0 mi WNW 3.5 mph - N/A   Clear
8:53 AM 45.0 °F - 30.9 °F 58% 30.20 in 10.0 mi Calm Calm - N/A   Clear
9:53 AM 46.9 °F - 30.9 °F 54% 30.19 in 10.0 mi WSW 3.5 mph - N/A   Clear
10:53 AM 48.9 °F - 32.0 °F 52% 30.17 in 10.0 mi WNW 4.6 mph - N/A   Clear
11:53 AM 50.0 °F - 32.0 °F 50% 30.14 in 10.0 mi NNW 3.5 mph - N/A   Clear
12:53 PM 53.1 °F - 30.0 °F 41% 30.10 in 10.0 mi Calm Calm - N/A   Clear
1:53 PM 54.0 °F - 30.0 °F 40% 30.05 in 10.0 mi Calm Calm - N/A   Clear
2:53 PM 55.0 °F - 30.9 °F 40% 30.04 in 10.0 mi Calm Calm - N/A   Clear
3:53 PM 54.0 °F - 30.9 °F 41% 30.02 in 10.0 mi Calm Calm - N/A   Clear
4:53 PM 53.1 °F - 30.0 °F 41% 30.02 in 10.0 mi Calm Calm - N/A   Clear
5:53 PM 51.1 °F - 30.9 °F 46% 30.03 in 10.0 mi NNE 3.5 mph - N/A   Clear
6:53 PM 48.0 °F - 30.9 °F 52% 30.03 in 6.0 mi SSW 4.6 mph - N/A   Haze
7:53 PM 46.9 °F - 30.9 °F 54% 30.03 in 6.0 mi Calm Calm - N/A   Haze
8:53 PM 45.0 °F - 30.0 °F 56% 30.03 in 9.0 mi Calm Calm - N/A   Clear
9:53 PM 45.0 °F - 30.0 °F 56% 30.01 in 10.0 mi Calm Calm - N/A   Clear
10:53 PM 44.1 °F 42.5 °F 30.0 °F 58% 30.00 in 10.0 mi SSE 3.5 mph - N/A   Clear
11:53 PM 43.0 °F - 28.0 °F 56% 30.00 in 5.0 mi Calm Calm - N/A   Haze